Location: Brunembert
(50.7122°N, 1.8935°E)
Time: 09:29:45
(UTC+00:00)

Aureole 1 Rocket - Pass Details

Date: 22 April 2021
Orbit: 379 x 1372 km, 73.9° (Epoch: 05 May)

Event Time Altitude Azimuth Distance (km) Brightness Sun altitude
Exits shadow 22:17:33 48° 208° (SSW) 1,019 3.8 -23.6°
Maximum altitude 22:19:05 86° 294° (WNW) 745 3.3 -23.7°
Drops below altitude 10° 22:23:31 10° 24° (NNE) 1,975 6.2 -24.0°
Sets 22:25:28 0° 25° (NNE) 2,761 7.0 -24.1°
